Powrót do katalogu

ORBCOMM FM 19

AktywnyŁącznośćLEO
NORAD 25415·PAYLOAD·🇺🇸 United States

Wystrzelony Aug 2, 1998 z Cape Canaveral Space Force Station

Loading…

Następne Przeloty (najbliższe 24 godziny)

TLE

ŚwieżeSource: Space-Track

Epoka: Sep 14, 2026, 03:11 UTC

1 25415U 98046C   26257.13308339  .00000752  00000-0  28357-3 0  9998
2 25415  44.9931 180.7186 0004618  16.2064 118.0116 14.39635316469590

Śledź ORBCOMM FM 19 w czasie rzeczywistym z AllMySat

Download on the App Store